This demonstration page uses our WeatherBlox Daily Observations layout. Learn more.

Left ArrowRight Arrow

Hourly Observations for January 10, 2016

Temp ( °F °C ) Dew Point ( °F °C ) Humidity (%) Winds ( mph kmh ) Pressure ( in mb ) Visibility ( mi km ) Precip ( " mm )
12:53 am 00:53 Clear -2 -18.9 -7 -21.7 79 79 NNW 7 11 30.38 1029 10 16 0.00 0.00
1:53 am 01:53 Clear -2 -18.9 -8 -22.2 75 75 NW 7 11 30.37 1029 10 16 0.00 0.00
2:53 am 02:53 Clear -6 -21.1 -10 -23.3 83 83 WNW 7 11 30.38 1029 10 16 0.00 0.00
3:53 am 03:53 Clear -5 -20.6 -10 -23.3 79 79 NW 7 11 30.36 1028 10 16 0.00 0.00
4:53 am 04:53 Clear -6 -21.1 -11 -23.9 78 78 NNW 5 7 30.36 1028 10 16 0.00 0.00
5:53 am 05:53 Clear -8 -22.2 -12 -24.4 82 82 W 6 9 30.36 1028 10 16 0.00 0.00
6:53 am 06:53 Clear -6 -21.1 -11 -23.9 78 78 W 8 13 30.37 1028 10 16 0.00 0.00
7:53 am 07:53 Clear -5 -20.6 -10 -23.3 79 79 SW 6 9 30.35 1028 10 16 0.00 0.00
8:53 am 08:53 Sunny -3 -19.4 -7 -21.7 82 82 SW 5 7 30.35 1028 10 16 0.00 0.00
9:53 am 09:53 Sunny 3 -16.1 -2 -18.9 79 79 SW 8 13 30.33 1027 10 16 0.00 0.00
10:53 am 10:53 Sunny 7 -13.9 1 -17.2 76 76 SSW 9 15 30.31 1026 10 16 0.00 0.00
11:53 am 11:53 Sunny 12 -11.1 5 -15 73 73 SSW 9 15 30.26 1025 10 16 0.00 0.00
12:53 pm 12:53 Sunny 16 -8.9 9 -12.8 74 74 SSW 10 17 30.22 1023 10 16 0.00 0.00
1:53 pm 13:53 Sunny 21 -6.1 13 -10.6 71 71 SSW 8 13 30.18 1022 10 16 0.00 0.00
2:53 pm 14:53 Sunny 22 -5.6 15 -9.4 75 75 SW 10 17 30.17 1022 10 16 0.00 0.00
3:53 pm 15:53 Sunny 23 -5 16 -8.9 74 74 SW 9 15 30.16 1021 10 16 0.00 0.00
4:53 pm 16:53 Sunny 24 -4.4 17 -8.3 75 75 SW 6 9 30.16 1021 10 16 0.00 0.00
5:53 pm 17:53 Clear 23 -5 17 -8.3 78 78 SSW 7 11 30.15 1021 10 16 0.00 0.00
6:53 pm 18:53 Clear 22 -5.6 17 -8.3 82 82 S 6 9 30.14 1021 9 14 0.00 0.00
7:53 pm 19:53 Clear 21 -6.1 17 -8.3 85 85 SSW 6 9 30.13 1020 8 13 0.00 0.00
8:53 pm 20:53 Clear 20 -6.7 16 -8.9 85 85 SW 6 9 30.11 1020 8 13 0.00 0.00
9:53 pm 21:53 Clear 19 -7.2 14 -10 81 81 WSW 6 9 30.10 1019 8 13 0.00 0.00
10:53 pm 22:53 Clear 21 -6.1 14 -10 74 74 WSW 6 9 30.07 1018 10 16 0.00 0.00
11:53 pm 23:53 Clear 19 -7.2 12 -11.1 74 74 W 6 9 30.06 1018 10 16 0.00 0.00

Powered by AerisWeather